ECMWFFLT1_925_thetae_132.txt.gz
Theta_e
347 346 346 347 346 345 346 349 350 351 352 355 355 355 353 351 353 355 356 357 358 357 357 357 357 358 358 359 359 359 359 359 358 358 357 357 357 357 357 357 357 357 357 356 356 357 357 357 356 355 356 356 356 357 357 357 356 357 357 357 358 359 359
350 349 348 347 347 346 346 351 353 352 352 354 355 354 353 353 355 357 357 359 359 357 357 357 357 357 358 358 358 359 360 359 359 358 358 359 359 358 357 356 357 358 358 357 356 358 358 357 357 356 356 356 356 357 358 357 357 356 357 358 359 359 359
353 352 351 348 347 346 347 351 353 351 351 352 352 353 353 354 357 358 358 359 358 358 357 357 357 357 356 357 358 358 359 359 359 359 358 358 358 357 357 357 357 356 357 357 357 357 357 358 358 357 356 356 356 357 358 357 357 356 357 359 359 359 360
354 353 351 350 349 349 349 351 352 351 350 351 351 352 354 356 358 358 358 357 356 357 357 356 357 356 356 356 356 357 359 358 359 359 358 358 357 357 357 357 356 355 356 356 356 357 357 358 359 358 357 357 358 358 358 359 358 357 357 358 359 359 360
355 354 352 351 349 349 350 352 353 351 350 350 351 352 354 355 357 357 357 355 353 355 356 356 354 354 355 355 355 355 356 357 358 358 358 358 358 358 358 357 356 355 356 355 356 358 358 358 358 358 357 358 358 359 359 359 359 358 358 358 359 360 359
355 354 354 353 349 348 349 352 353 351 350 350 351 352 353 354 355 355 354 353 352 352 355 355 353 354 355 355 353 353 355 356 357 357 358 359 358 358 358 357 357 356 356 355 355 357 358 358 357 358 358 357 357 358 358 359 359 359 359 359 360 361 359
356 356 356 353 350 349 349 351 350 350 350 350 351 352 351 351 352 351 351 351 351 351 353 354 352 354 355 354 353 354 354 355 356 356 357 357 358 357 357 358 357 357 357 356 357 357 357 357 357 358 358 358 358 357 358 360 361 360 360 361 361 361 360
356 356 356 354 350 348 348 349 349 348 349 349 351 353 351 350 350 349 349 352 354 354 352 352 351 353 356 355 354 354 354 354 354 355 354 355 357 356 356 357 358 358 357 357 357 357 357 357 357 358 359 358 358 359 359 361 361 360 360 361 362 361 359
356 356 356 354 351 349 349 348 347 347 349 350 351 353 352 351 350 350 350 354 357 358 356 353 352 354 357 356 355 355 355 353 352 353 352 352 354 355 355 356 357 358 358 357 357 357 357 357 357 358 359 359 361 362 362 362 361 360 361 361 362 361 360
356 355 356 356 354 356 357 355 352 349 349 350 352 354 352 351 351 352 352 355 358 360 359 356 355 358 359 358 357 355 354 354 352 351 350 349 350 352 353 354 355 356 356 356 356 357 357 357 357 360 361 360 362 363 362 362 361 361 361 361 361 361 361
356 354 354 355 355 356 356 356 357 356 353 353 353 353 352 351 352 353 354 356 358 360 360 358 358 360 360 360 359 355 354 354 352 350 349 347 347 348 349 350 351 353 353 353 354 356 358 358 358 360 361 360 360 361 362 362 362 362 361 360 360 360 360
354 354 354 354 354 354 355 355 356 355 355 356 355 354 353 353 353 353 355 357 358 360 361 359 360 362 361 360 360 358 355 354 352 350 349 348 347 346 347 347 347 349 350 350 352 354 356 358 358 360 361 360 360 361 362 362 362 362 361 360 360 360 360
353 353 353 353 353 353 355 355 356 356 355 355 354 351 352 355 355 355 357 358 357 359 360 360 361 362 361 359 360 360 359 357 355 352 350 349 349 347 347 347 346 347 347 347 349 352 353 355 357 358 359 359 359 359 360 361 361 362 362 360 359 359 360
351 352 352 353 352 352 353 354 355 357 355 354 352 350 352 356 356 357 358 359 359 359 361 361 361 361 360 358 359 360 360 358 357 356 353 352 352 351 350 349 348 347 347 348 348 349 350 351 353 355 356 357 357 357 357 359 360 361 362 361 359 359 359
351 351 352 353 353 354 354 353 355 356 354 353 353 353 353 355 356 357 358 359 359 360 361 361 361 361 360 359 359 360 360 360 359 359 358 356 356 356 355 353 352 351 351 351 351 350 349 349 350 352 354 354 354 355 355 356 358 359 359 359 360 359 358
350 351 351 352 352 353 352 353 355 355 353 354 353 353 353 353 353 354 355 357 357 358 359 360 360 360 359 358 359 360 361 361 360 361 362 360 359 358 358 356 355 354 354 354 354 352 352 352 352 352 352 354 354 354 354 354 354 356 356 355 356 357 358
350 351 351 350 350 350 350 352 353 353 353 353 352 352 353 353 353 352 353 354 354 355 356 357 358 359 359 359 359 360 360 359 359 360 362 362 361 361 361 360 359 358 357 356 356 355 356 355 354 353 351 351 352 352 352 352 353 355 355 352 350 352 355
350 350 348 348 348 348 347 348 349 350 349 348 348 348 349 351 352 352 353 353 353 354 354 354 356 357 357 357 357 357 357 356 355 356 357 358 360 361 361 361 362 362 360 359 358 357 357 355 355 355 353 351 351 349 350 353 354 354 353 351 349 348 351
349 348 347 347 347 346 345 345 346 346 346 345 345 346 347 349 350 351 352 353 353 354 353 353 354 354 354 354 353 354 355 354 354 354 353 354 357 359 360 360 361 361 360 358 358 357 357 355 355 356 354 353 353 352 354 355 353 351 350 348 348 347 348
347 346 346 346 344 343 343 344 344 343 343 344 344 345 345 346 347 348 349 349 351 352 351 351 352 352 353 352 352 352 352 353 353 352 352 353 354 355 357 357 356 356 356 356 356 356 356 355 354 355 355 355 356 355 355 353 350 348 348 347 348 347 347
345 344 345 345 343 341 342 342 342 342 342 342 342 342 343 343 344 343 343 344 346 348 349 350 350 351 351 351 352 353 352 352 353 352 352 352 352 352 353 353 352 353 353 354 354 354 356 355 354 355 355 356 357 355 351 350 349 349 348 348 348 347 347
343 343 343 344 341 340 341 340 340 341 340 340 340 340 340 341 341 340 339 341 342 344 345 347 348 349 350 350 351 353 353 353 352 351 351 351 350 349 349 349 350 350 350 350 350 352 355 355 354 355 355 355 356 352 347 347 349 350 349 350 350 348 349
341 341 342 342 341 341 340 339 339 339 338 338 338 337 337 338 340 339 339 339 341 341 343 343 344 345 346 347 348 349 349 349 348 348 348 348 347 346 346 346 347 347 346 347 349 351 353 353 352 353 353 353 352 349 344 343 347 348 348 349 350 350 352
341 341 340 340 341 340 340 339 339 337 337 337 336 335 335 336 338 339 339 339 339 340 340 341 342 342 343 344 344 345 345 344 343 344 344 344 343 343 344 344 344 345 345 346 348 349 349 350 350 350 349 348 346 344 340 340 342 345 346 348 349 350 353
340 339 339 339 340 339 338 338 338 337 337 336 334 335 335 335 336 338 338 339 339 340 340 340 341 341 342 342 343 343 343 342 342 342 341 341 341 342 342 342 343 343 344 344 345 345 345 346 346 345 343 342 341 340 337 336 337 339 341 345 347 349 352
339 339 338 338 338 337 336 336 336 336 336 334 333 333 334 335 336 337 337 338 339 340 340 339 339 340 340 340 341 342 342 342 342 342 341 341 342 342 342 341 341 341 340 340 340 340 340 340 341 341 341 340 339 338 335 334 334 335 336 338 341 345 347
337 337 336 335 335 334 334 334 334 334 334 333 333 332 332 333 334 335 336 337 338 338 338 337 337 337 337 338 339 339 340 340 340 340 340 340 340 339 338 337 336 336 335 335 334 334 335 335 336 337 338 337 336 335 333 333 333 333 333 334 335 337 339
336 335 334 334 333 333 332 333 332 333 333 332 332 332 333 333 333 333 334 335 336 336 336 336 336 336 336 336 337 337 337 337 337 337 337 336 336 335 334 333 332 331 331 331 330 330 332 333 333 334 335 334 333 332 330 330 331 330 330 330 331 332 333
335 335 334 333 332 332 331 331 331 331 331 331 330 332 332 333 333 333 334 335 335 335 335 335 335 335 335 335 335 335 334 333 332 332 332 332 332 332 332 331 331 330 330 331 331 330 330 331 332 332 332 332 331 329 327 326 326 326 326 326 326 327 327
333 334 333 332 331 331 330 330 331 330 330 330 330 331 332 332 333 333 333 334 334 333 333 334 334 333 333 333 333 333 332 331 329 328 328 328 328 329 330 331 331 331 332 332 332 331 331 332 331 331 331 330 329 328 326 325 324 323 324 324 324 324 324
332 332 332 331 331 331 330 330 330 329 329 329 330 330 331 331 332 332 332 333 333 333 332 332 331 331 331 331 331 331 330 329 327 326 327 326 326 327 328 328 329 331 332 332 331 331 332 332 332 331 331 330 329 328 328 327 325 325 324 323 323 323 323
331 330 330 329 329 329 329 329 329 328 327 327 328 328 329 330 331 332 331 331 331 331 331 331 330 330 330 330 330 329 328 327 326 326 326 326 325 326 326 324 325 327 329 331 331 331 331 331 331 331 330 330 329 328 328 327 327 326 326 325 324 323 322
330 329 328 328 328 327 327 327 327 327 326 326 326 326 327 328 329 330 329 329 329 329 330 331 331 330 330 329 328 328 327 326 325 325 325 325 325 325 325 324 325 327 328 328 329 330 330 330 330 330 330 329 328 328 327 327 326 326 326 326 326 325 323
328 327 327 326 326 326 326 327 326 326 326 326 325 325 326 326 327 328 328 328 328 328 329 330 329 329 329 328 328 327 327 326 325 325 325 325 325 325 325 324 325 326 326 327 328 328 328 329 329 329 329 329 328 327 326 326 325 324 322 321 322 323 322
326 326 326 325 325 326 326 325 325 325 325 325 325 325 325 325 325 325 325 326 326 327 328 328 328 328 327 327 327 327 326 326 325 325 325 325 325 325 324 324 324 324 323 324 326 327 327 327 327 327 327 327 327 326 326 325 323 320 318 317 317 317 318
323 323 323 323 323 324 324 324 324 323 323 323 323 323 323 323 323 323 324 324 325 325 326 327 327 327 326 326 326 326 325 325 325 324 324 324 323 322 322 321 321 321 321 321 322 323 323 324 324 324 324 324 323 323 323 322 319 317 316 316 315 315 315
322 322 321 320 321 322 322 322 322 322 321 321 321 321 321 322 323 323 324 324 325 325 325 326 326 326 325 325 326 326 325 325 325 324 324 323 323 322 321 320 319 319 319 320 320 320 320 320 320 320 321 321 320 319 318 317 317 316 316 315 315 314 314
320 321 320 320 321 321 321 321 321 321 320 319 319 319 319 320 321 322 323 324 324 325 325 325 325 325 325 325 325 325 325 325 325 325 325 324 323 323 322 321 320 318 318 318 318 318 318 318 317 317 317 318 319 319 317 316 316 316 315 314 314 314 313

ECMWFFLT1_925_thetae_135.txt.gz
Theta_e
346 345 345 345 345 344 345 346 346 346 347 348 349 350 350 349 349 351 354 357 358 359 360 361 361 362 363 363 362 362 363 362 359 359 359 358 358 358 358 358 358 357 358 357 357 357 357 357 356 355 356 356 356 358 359 358 358 358 358 357 358 360 361
346 346 345 344 345 344 344 346 346 346 348 349 350 350 349 350 349 350 354 356 358 358 359 359 361 362 362 361 362 362 362 362 360 359 359 358 359 359 357 357 358 358 358 357 357 358 358 357 356 357 357 356 355 358 358 358 358 357 357 358 358 360 360
347 348 346 345 346 345 345 346 346 346 348 349 349 349 348 349 350 351 353 355 357 357 357 358 359 360 361 361 362 361 362 362 361 359 359 359 358 357 357 357 358 357 357 357 357 358 357 357 356 356 356 355 354 357 358 358 358 357 358 359 359 360 361
351 349 347 347 347 346 346 346 346 347 348 348 348 348 348 348 349 351 352 353 355 356 355 356 357 357 358 360 360 360 360 361 361 359 358 357 357 356 357 357 357 356 356 356 356 356 357 357 357 357 357 355 355 356 357 358 358 356 357 359 359 359 360
350 349 348 349 349 346 346 346 347 347 347 347 347 346 346 347 348 349 350 350 350 352 353 353 353 353 355 356 357 358 359 359 360 360 358 357 357 356 357 356 355 355 356 356 356 357 359 359 358 357 356 356 357 357 358 358 359 357 357 358 357 358 359
350 350 350 350 350 348 346 346 346 346 346 346 346 346 346 345 346 348 348 348 347 349 351 351 350 352 353 353 352 354 356 358 359 359 359 359 358 357 356 356 356 354 355 355 355 357 358 358 358 357 356 355 356 356 357 357 357 357 358 357 357 358 359
355 352 351 350 350 349 347 346 345 346 346 346 346 346 346 344 345 346 346 347 347 347 349 350 348 350 352 351 350 352 354 356 358 358 359 359 359 357 357 357 356 355 355 355 355 356 357 357 357 358 357 355 354 355 356 358 357 358 359 359 359 360 360
357 354 353 351 350 350 349 348 346 346 346 346 346 346 346 345 345 345 346 347 347 347 348 348 348 349 351 350 350 351 351 352 354 356 356 358 358 358 358 357 357 356 356 355 355 356 357 356 357 358 358 357 357 357 359 361 361 360 360 360 360 361 359
355 354 355 353 352 350 350 350 348 347 346 346 347 347 346 345 345 345 347 347 348 348 347 347 347 348 350 350 351 351 350 350 351 353 354 355 356 356 356 356 357 357 356 356 356 355 356 356 355 357 359 358 360 361 361 363 362 359 359 362 363 363 361
356 354 356 355 353 350 349 351 351 350 349 348 347 348 347 345 345 345 347 348 348 349 348 347 347 348 350 351 351 350 350 350 349 350 351 351 353 354 354 355 356 357 357 356 355 355 356 356 355 358 360 359 362 363 362 363 362 359 359 362 363 363 362
359 358 359 357 355 352 349 353 355 353 352 350 348 350 350 347 345 345 347 349 350 351 350 348 347 349 351 352 352 350 350 350 348 347 348 348 349 350 352 353 354 355 356 355 354 354 355 355 356 359 360 359 360 362 362 362 361 361 360 359 360 361 361
358 360 360 359 359 357 355 358 361 360 355 352 351 352 352 350 348 347 347 349 352 355 354 351 349 351 354 353 353 351 350 349 348 346 346 345 345 345 347 349 351 353 354 353 353 353 353 354 356 358 360 359 359 360 362 363 361 362 361 358 358 359 360
357 358 358 359 360 360 360 360 362 362 360 358 359 359 357 354 352 352 352 352 356 360 361 357 353 355 359 357 354 352 351 350 349 347 345 345 344 343 344 345 347 349 351 351 351 352 352 354 354 356 358 360 360 359 360 362 362 362 362 360 358 358 359
355 356 356 357 357 358 359 358 358 359 358 358 360 360 360 359 357 357 357 359 360 362 363 361 359 361 364 362 357 355 353 352 351 350 347 345 345 344 344 344 344 345 346 347 348 349 350 352 353 354 355 357 358 357 358 360 361 362 363 362 359 358 358
354 354 354 354 355 356 356 356 357 357 356 356 358 357 356 357 359 359 360 361 361 361 362 362 362 364 365 364 361 359 356 353 352 352 349 347 346 346 346 345 344 344 345 345 346 346 348 348 350 351 352 354 356 355 355 356 357 359 360 360 361 360 357
354 353 354 353 354 355 354 354 356 358 357 358 357 355 354 355 359 360 360 361 361 360 361 362 363 365 365 363 362 362 361 358 355 354 353 351 350 350 350 348 347 346 346 346 346 345 346 348 347 348 350 352 354 354 354 354 354 354 356 358 359 359 356
352 353 353 353 353 354 354 354 356 357 358 358 357 357 356 356 358 358 358 359 360 359 360 361 362 364 365 364 362 362 364 363 360 358 357 356 353 354 355 352 350 349 349 349 349 349 350 349 349 348 349 351 352 353 353 353 352 352 354 356 357 357 355
353 353 353 353 354 354 354 354 355 357 356 356 356 356 356 356 356 356 356 357 357 357 358 359 360 360 362 364 363 363 365 366 365 364 363 362 360 359 360 360 360 359 358 356 355 354 353 352 352 352 350 349 350 350 351 352 351 351 353 355 356 355 353
353 352 352 352 352 353 352 353 354 355 355 355 355 355 355 355 355 355 356 355 355 355 356 357 358 357 359 361 361 363 365 365 365 365 364 365 364 363 364 367 368 366 363 361 360 357 356 354 354 354 352 350 347 348 352 352 352 353 353 354 354 353 351
351 350 350 350 350 350 351 352 352 351 352 353 353 353 353 353 353 354 354 354 355 355 354 355 356 355 357 358 358 360 361 360 358 357 357 359 360 362 364 365 365 364 363 363 361 360 358 357 354 354 354 352 348 352 355 355 354 353 353 352 352 350 348
349 349 349 348 348 349 349 349 349 349 351 351 350 350 350 351 351 351 351 352 353 354 354 354 354 354 355 356 356 356 358 356 352 351 353 356 357 360 361 359 360 361 362 362 361 360 360 358 355 355 355 353 351 353 353 353 353 353 351 349 349 348 347
348 347 346 346 346 347 347 347 347 348 348 347 348 348 348 348 348 347 347 349 351 352 353 353 354 354 355 356 355 355 355 355 353 352 353 354 355 356 357 357 357 357 357 358 359 360 361 359 358 357 356 356 356 352 348 349 351 351 350 349 349 348 348
347 346 345 345 344 345 346 347 346 347 346 346 346 346 346 346 345 345 346 347 348 350 351 352 352 353 354 354 353 352 352 352 353 353 352 353 353 354 354 355 354 354 354 354 355 356 358 356 354 353 352 353 354 350 345 346 349 349 349 349 349 349 351
345 345 345 344 344 344 344 345 345 345 345 345 344 344 345 345 344 345 346 346 347 348 348 349 350 350 351 351 350 350 350 350 352 352 352 353 352 351 352 352 352 351 352 352 352 353 353 350 348 348 347 347 347 344 340 341 344 345 347 348 348 348 351
343 343 343 343 343 343 343 344 343 343 343 344 343 343 344 344 344 344 345 345 346 346 346 347 348 348 348 348 348 348 349 349 350 350 349 349 349 349 349 349 349 348 348 349 350 350 348 345 343 343 343 342 341 338 336 335 337 339 342 344 346 348 350
342 342 342 342 341 341 342 342 341 342 342 342 342 343 342 343 344 344 344 345 345 345 345 345 345 346 346 346 346 346 346 347 347 346 346 345 346 346 346 345 345 345 345 346 346 345 344 343 342 341 341 340 338 336 334 334 334 334 336 338 341 345 348
341 340 339 338 338 339 340 340 339 339 339 339 339 340 341 342 343 342 342 344 343 343 342 342 343 343 344 344 344 344 345 345 344 344 343 342 342 342 342 341 341 341 341 342 342 341 340 339 339 338 337 336 335 334 332 332 332 332 333 334 335 338 341
338 338 337 336 337 337 336 337 336 335 336 336 336 337 339 340 341 340 340 341 341 341 341 340 341 341 341 341 342 342 343 342 342 341 340 340 339 339 338 338 337 337 337 337 337 337 336 336 335 333 331 331 330 330 330 329 329 329 329 329 330 331 333
337 335 335 335 334 334 334 334 333 332 332 333 333 335 337 338 338 339 339 339 339 338 338 338 339 339 338 338 337 337 338 339 339 339 338 337 337 336 336 336 335 334 334 334 334 333 333 334 333 331 329 328 327 326 326 326 326 326 325 325 325 326 327
335 333 334 333 332 332 332 331 331 331 331 331 331 332 334 336 337 337 337 337 336 336 336 337 337 337 337 336 335 334 334 334 335 335 335 335 335 334 334 334 334 334 334 334 334 333 332 333 333 332 331 330 329 327 327 326 325 324 324 323 323 323 323
334 333 332 332 331 332 332 331 331 330 331 331 330 331 332 334 335 335 335 334 334 334 334 335 335 335 335 335 335 333 332 331 331 332 332 333 333 333 334 333 333 333 333 333 333 334 333 333 332 332 332 331 330 329 328 327 326 325 325 325 324 323 321
334 333 332 330 330 331 331 330 330 330 329 329 329 329 331 332 333 334 333 332 332 332 333 334 334 333 333 333 333 332 331 330 329 329 329 329 329 330 331 331 333 333 333 333 333 333 333 332 330 330 331 331 330 329 328 328 328 327 327 327 328 326 323
333 332 332 331 330 330 329 329 328 328 328 327 327 327 328 329 330 331 330 330 330 331 332 332 332 331 331 330 330 330 329 329 328 327 327 326 326 327 327 328 330 331 332 332 332 332 332 332 331 331 330 330 330 329 328 328 329 328 327 327 328 328 326
331 331 330 330 329 328 328 328 328 327 327 327 327 326 326 326 327 327 328 328 328 329 331 331 330 330 329 328 328 328 328 328 328 327 327 327 327 327 326 327 327 328 329 329 329 330 330 331 330 330 329 329 329 329 328 327 327 326 324 322 322 324 323
330 330 329 328 327 326 326 326 326 326 326 326 325 326 325 325 324 325 326 326 328 329 330 330 329 328 328 327 326 326 326 327 327 326 326 328 327 326 326 326 327 327 326 326 327 328 329 329 329 328 328 328 327 328 328 327 324 321 319 317 317 317 317
329 329 328 326 324 324 325 325 325 325 325 324 324 324 324 325 325 325 325 325 326 328 329 329 328 327 327 327 326 326 325 325 325 325 324 325 325 324 323 323 323 323 323 323 323 325 326 326 326 325 325 325 324 325 325 324 321 318 317 316 315 314 314
327 326 325 324 323 323 323 323 323 323 323 323 323 322 323 324 325 325 326 325 325 326 327 328 328 327 327 327 326 326 325 324 324 325 324 324 324 324 322 321 320 320 319 320 320 320 321 322 322 321 322 321 321 321 320 319 318 317 315 315 314 314 314
324 324 324 323 323 322 322 321 322 322 322 321 321 321 321 322 322 324 325 325 326 326 326 327 327 326 326 327 327 327 326 326 325 325 325 325 324 324 323 322 321 319 318 317 317 317 318 318 319 319 320 319 319 318 317 316 316 315 315 315 314 314 313

ECMWFFLT1_925_thetae_138.txt.gz
Theta_e
348 345 347 350 348 346 349 350 348 348 350 350 349 351 350 352 356 357 359 361 361 363 363 362 361 360 361 361 360 360 358 356 359 360 360 360 359 359 358 358 358 358 356 357 356 354 354 354 353 354 356 356 357 358 359 359 358 358 357 356 357 358 358
349 346 344 346 346 346 347 348 348 348 349 349 350 351 351 351 354 357 359 360 361 362 362 362 362 361 361 361 360 361 360 357 358 360 359 358 357 358 357 357 358 357 357 356 356 355 355 356 354 354 357 356 356 358 359 359 359 358 357 354 355 358 359
350 349 347 347 346 346 348 348 347 347 348 349 349 351 351 351 353 356 359 360 361 362 362 361 361 360 360 360 358 360 361 359 358 359 358 357 357 358 356 357 357 357 358 357 357 357 357 357 356 356 358 356 355 357 359 359 359 358 358 358 357 358 360
354 354 348 348 349 348 350 349 347 347 348 349 349 350 350 350 352 355 358 360 361 361 361 361 361 360 360 360 359 361 361 361 359 358 357 358 357 356 356 357 357 357 357 357 357 357 356 356 357 357 357 355 354 356 357 359 358 357 358 359 359 358 359
357 362 356 351 352 351 350 349 348 347 347 349 349 349 350 349 350 354 357 359 359 359 360 360 360 359 360 360 360 360 360 361 360 357 356 357 356 355 355 356 356 356 356 356 356 356 356 356 356 357 357 355 355 356 357 358 358 357 357 358 358 358 359
355 361 360 355 353 350 348 348 347 346 347 349 349 349 350 350 350 352 354 356 357 357 358 358 357 357 359 359 358 357 358 359 360 359 357 356 355 355 356 356 355 355 356 356 355 356 358 358 357 357 356 356 356 356 357 358 358 358 357 358 358 357 357
353 353 355 357 356 351 348 347 346 346 347 348 349 348 348 349 349 350 351 353 354 354 355 355 354 356 358 358 356 357 357 358 360 360 358 357 357 356 356 356 355 354 355 356 355 356 359 358 357 357 356 354 353 354 355 356 356 356 357 358 358 357 358
356 354 352 354 355 353 351 348 345 346 347 348 349 348 347 347 348 348 349 351 351 351 352 352 352 354 356 356 355 356 357 357 358 359 358 359 358 357 356 357 356 355 354 355 355 356 357 357 356 357 356 353 352 352 354 356 356 356 357 358 359 359 358
362 364 358 354 352 351 350 348 346 346 346 346 347 347 347 346 346 346 347 349 348 349 351 350 349 351 353 354 352 353 356 356 357 358 357 358 358 357 357 357 357 356 355 355 354 355 356 356 355 356 357 355 354 354 356 357 357 357 358 359 360 360 359
362 364 366 362 354 350 350 349 349 349 348 348 348 347 347 345 345 346 346 347 348 349 350 348 348 351 352 352 351 351 353 355 355 355 356 356 357 357 356 356 356 356 356 355 354 354 356 355 354 356 357 357 357 358 358 359 360 359 358 359 360 360 360
359 360 365 366 359 355 355 355 355 351 350 352 350 346 347 346 345 346 347 348 348 348 349 347 347 350 351 351 352 351 351 352 353 353 354 354 355 355 355 355 356 356 356 355 355 355 355 355 355 356 358 357 358 360 361 360 361 360 358 358 360 360 359
358 358 360 364 365 362 359 359 358 352 349 353 352 347 348 347 345 347 349 348 348 348 349 348 348 350 351 351 352 351 351 351 350 351 351 352 352 352 353 354 355 356 356 356 355 355 354 355 355 356 358 358 358 361 362 360 359 360 359 359 359 359 359
358 360 359 361 364 362 360 359 360 355 350 352 354 349 348 348 348 350 349 348 349 349 348 349 349 350 351 352 352 352 351 351 350 350 349 350 349 349 350 352 354 355 355 356 356 354 354 354 354 356 358 359 357 359 361 360 359 359 359 359 358 358 359
358 360 360 361 360 359 360 360 361 360 357 358 359 355 352 350 350 351 350 350 350 350 350 350 350 351 351 352 353 353 352 351 351 349 348 348 347 346 346 349 352 353 353 355 356 355 354 353 353 355 357 358 357 358 359 360 360 360 360 360 358 359 359
352 353 355 359 361 362 361 362 364 364 363 364 364 361 358 356 354 353 353 353 354 354 354 353 351 352 353 353 354 354 353 352 351 350 349 347 346 346 345 345 349 350 351 352 353 352 353 352 352 353 355 356 357 358 358 358 360 360 361 361 359 359 359
351 350 351 353 358 362 361 361 363 363 363 364 363 362 362 360 360 359 359 360 360 360 361 360 357 356 356 357 357 355 354 353 352 351 350 349 347 345 344 344 346 347 348 350 350 349 349 350 350 353 354 355 357 357 356 357 358 358 360 361 360 360 361
351 351 349 349 351 355 357 358 360 360 361 362 360 361 361 361 362 362 363 364 363 363 363 363 362 361 360 361 361 359 356 355 354 353 351 351 350 348 346 346 346 346 346 347 347 346 346 346 348 350 351 353 355 356 354 354 355 356 357 358 359 359 359
353 352 350 350 351 350 350 353 357 358 359 359 359 358 358 360 362 362 362 363 363 363 364 364 364 361 360 362 360 358 357 355 354 353 352 353 354 353 351 350 351 350 349 347 346 346 346 346 347 348 348 349 353 355 354 352 353 354 354 354 355 357 357
354 352 351 351 351 349 349 350 351 353 354 353 355 356 357 358 359 360 361 361 362 362 363 363 362 359 360 361 358 356 356 355 353 353 353 354 355 355 355 354 354 354 353 352 351 349 349 349 349 350 349 348 350 352 352 352 352 352 352 352 352 354 356
354 354 351 350 350 350 351 351 349 350 349 347 348 351 352 352 353 355 357 358 359 360 360 361 359 357 357 358 356 355 353 352 353 355 357 356 354 355 356 356 356 355 355 357 357 355 353 351 351 352 352 351 350 351 351 351 352 352 352 353 353 355 356
352 353 352 351 350 348 349 350 349 349 348 348 348 350 349 350 351 353 355 356 357 357 357 357 355 355 354 354 354 353 351 352 354 352 354 357 357 356 357 358 359 357 357 359 359 355 352 350 350 350 352 351 350 349 350 351 352 352 352 353 353 353 353
351 351 350 350 349 348 349 349 348 348 347 346 348 350 349 350 350 351 351 353 355 354 353 352 353 352 352 351 351 351 351 354 353 349 349 355 356 355 356 357 358 358 359 360 357 353 351 352 352 351 351 351 349 349 350 350 351 352 351 351 350 350 350
350 348 348 348 348 349 349 348 347 348 346 346 348 349 348 348 347 347 348 350 352 352 350 350 350 350 351 350 350 351 353 353 353 349 349 351 354 355 355 356 357 358 359 359 355 351 353 354 352 351 352 351 350 349 349 348 350 351 350 350 350 349 350
347 347 347 347 347 348 348 347 347 347 346 346 347 347 347 346 346 347 348 348 350 351 350 350 350 350 350 350 349 351 353 353 353 352 351 350 351 352 354 355 356 356 356 356 354 352 354 355 351 347 347 347 346 346 346 345 346 348 349 350 349 349 350
346 345 345 345 346 346 346 346 346 345 346 346 346 346 346 346 346 347 348 348 348 349 349 350 350 350 349 348 348 350 351 351 352 353 353 351 348 349 352 355 354 352 352 353 351 350 352 353 347 343 342 341 340 340 341 341 341 343 346 347 347 349 350
344 344 344 344 345 345 345 345 344 344 344 344 344 345 345 346 346 347 347 347 346 346 347 347 348 349 349 348 349 350 350 349 349 349 351 351 349 349 351 351 350 349 349 349 348 347 348 347 343 341 339 337 336 336 336 337 336 337 340 342 344 347 349
341 341 341 342 342 342 342 342 341 341 341 342 343 343 344 345 345 345 345 345 344 344 344 344 345 346 346 348 348 348 348 347 345 345 346 346 346 346 345 344 344 345 345 345 344 343 342 340 339 338 336 333 333 332 332 332 333 334 335 336 339 342 344
340 339 339 340 340 340 339 339 338 338 338 340 340 342 342 342 342 342 342 342 343 343 342 341 342 342 343 344 344 344 344 344 343 344 343 342 342 341 340 340 341 341 340 340 340 339 337 336 335 333 329 327 327 328 328 329 330 330 331 331 332 334 337
339 338 337 336 337 336 335 335 335 335 336 337 338 340 340 339 339 339 339 339 340 341 340 339 338 337 339 339 339 340 341 341 341 341 340 339 338 338 337 337 337 337 336 336 335 334 333 332 331 328 326 325 325 325 326 326 326 327 327 326 325 326 330
336 336 334 333 334 334 333 333 333 333 333 334 336 337 338 338 338 338 337 336 337 338 338 337 336 335 336 336 335 336 337 337 337 337 337 337 336 336 336 335 334 333 334 334 334 333 332 331 330 329 328 327 326 326 325 325 325 326 325 324 323 323 323
335 334 333 332 332 333 332 332 332 331 331 332 333 335 336 336 336 336 335 335 335 335 336 336 336 336 335 333 333 334 334 335 335 335 335 335 334 334 334 334 333 333 334 334 334 334 334 333 332 332 331 331 330 329 328 327 327 328 328 327 325 322 321
334 332 332 331 331 331 331 330 329 329 330 330 331 332 333 333 333 334 334 334 334 334 334 334 334 335 334 332 332 332 331 331 331 331 332 332 332 333 334 334 334 334 334 334 334 334 333 333 333 333 332 332 330 329 329 330 330 329 329 330 328 324 322
334 332 331 331 330 329 329 328 328 328 328 328 328 329 330 330 331 331 331 332 333 333 333 333 333 332 332 332 331 330 330 329 327 327 328 329 328 327 330 333 333 332 332 332 333 334 334 333 333 333 333 331 330 329 330 331 328 326 326 328 327 323 319
334 332 331 330 330 329 329 328 327 327 327 327 327 327 327 328 328 328 328 330 332 332 332 332 331 329 329 330 330 330 329 329 328 328 328 328 326 324 327 330 329 328 328 328 329 332 333 332 331 331 331 331 331 330 330 328 324 321 320 321 320 317 314
333 332 330 330 329 328 328 327 327 326 326 326 326 326 327 327 327 327 328 329 331 331 331 330 329 328 328 328 328 328 328 327 329 330 328 326 325 325 326 327 326 325 324 325 325 327 328 329 328 327 327 329 330 330 327 324 320 318 317 316 314 313 313
331 331 330 329 328 327 327 327 327 326 325 325 325 326 327 327 326 326 327 327 328 330 330 329 328 328 327 327 326 327 327 326 327 329 327 326 324 323 322 323 323 322 322 321 322 323 324 325 324 324 324 325 326 326 324 320 318 317 315 314 313 313 313
330 329 327 327 327 327 326 326 326 326 325 325 324 325 325 326 326 326 326 326 327 328 329 329 329 327 327 327 326 326 327 326 326 326 326 325 324 323 321 320 319 319 318 318 319 319 320 320 320 320 321 321 320 320 319 317 316 315 314 314 313 313 314
329 327 326 326 327 326 327 326 325 324 324 324 324 323 324 325 325 325 325 326 327 328 328 328 328 328 328 327 327 326 327 326 326 325 326 325 325 324 323 321 319 318 317 316 316 317 317 317 317 317 318 318 317 317 316 315 315 314 314 313 312 313 315

ECMWFFLT1_925_thetae_141.txt.gz
Theta_e
349 349 350 352 351 350 351 348 347 348 349 352 353 354 357 359 359 360 360 360 360 361 362 360 359 360 361 360 357 357 357 356 356 354 352 354 356 356 356 356 355 354 355 354 353 353 353 354 355 355 355 355 355 355 355 355 355 356 357 357 357 356 357
350 349 349 350 350 350 350 347 348 349 350 352 353 355 357 357 359 360 361 361 361 361 361 360 361 360 360 360 359 358 358 358 357 355 354 356 357 356 357 358 356 355 355 355 354 353 353 354 355 354 354 355 355 356 356 357 356 356 356 357 357 357 357
353 350 350 351 349 349 350 348 348 350 349 351 352 353 356 357 358 359 360 361 362 362 361 360 361 360 360 360 359 358 357 356 356 357 357 358 359 357 356 358 358 357 355 355 354 354 354 354 354 354 354 355 356 357 356 355 354 356 356 355 355 357 357
358 356 351 350 350 349 349 348 348 350 349 349 351 352 354 356 357 358 360 361 362 363 361 361 360 359 361 360 358 359 356 353 356 359 358 359 360 358 357 357 358 357 357 356 355 355 354 355 354 355 356 355 356 357 355 354 353 355 359 356 353 355 357
359 360 354 349 351 352 349 347 348 348 349 350 349 351 354 356 357 359 359 360 362 362 361 361 360 359 361 360 359 359 357 355 357 359 358 357 358 357 356 357 357 357 358 357 356 355 355 356 355 356 356 355 355 357 355 356 355 353 357 358 354 356 358
358 364 362 351 350 353 348 346 348 347 348 350 349 351 353 355 357 358 360 360 361 362 361 361 361 360 360 360 360 359 358 358 358 357 358 357 357 357 356 356 357 356 357 357 356 356 356 356 355 356 357 355 356 357 355 358 358 353 355 358 354 356 359
358 364 366 356 350 352 348 345 347 347 348 349 349 352 353 354 357 358 359 360 360 361 362 361 360 359 360 360 359 359 360 360 359 357 358 357 357 357 355 356 357 356 356 356 355 356 356 356 355 355 356 354 355 356 355 356 358 356 356 357 354 355 359
358 361 365 360 352 350 349 346 345 346 348 349 349 351 352 352 355 357 358 359 360 361 361 361 361 359 360 360 359 359 360 360 359 358 358 357 356 356 355 355 355 355 356 356 355 355 355 356 356 356 355 354 353 355 356 355 356 357 357 356 355 354 356
359 360 359 361 357 350 347 345 345 346 347 348 349 350 350 350 352 355 357 358 359 360 360 360 360 359 360 360 359 359 359 359 359 359 359 357 356 355 356 355 355 354 355 355 355 355 355 356 357 357 356 354 353 353 355 355 355 356 357 357 356 356 355
362 363 357 358 360 355 348 345 345 345 346 349 349 349 349 349 350 352 355 357 358 358 359 358 358 358 358 359 358 357 357 357 358 359 359 359 356 356 356 356 356 355 354 355 355 355 356 356 356 357 356 355 353 351 354 356 355 355 356 357 358 358 358
363 366 362 358 359 358 355 350 347 344 346 348 349 349 348 348 349 349 352 356 356 355 357 356 355 356 357 357 357 356 357 357 357 358 359 358 357 357 357 356 356 356 355 355 355 355 356 356 355 356 356 355 355 353 354 355 356 356 356 358 358 359 359
359 360 361 363 365 361 357 355 352 347 347 350 348 348 348 348 348 348 350 354 354 354 354 353 353 354 355 356 355 355 356 356 356 357 357 357 357 357 357 356 356 356 356 356 355 355 356 355 355 356 356 356 356 356 356 356 358 358 357 358 358 358 359
362 363 362 365 369 365 357 357 356 351 349 352 351 348 347 347 347 347 349 352 352 352 352 351 352 352 353 354 354 352 352 354 355 355 355 356 356 356 356 356 356 356 355 356 355 355 355 355 354 355 356 357 357 357 358 359 359 360 358 358 358 358 359
364 366 365 364 366 367 363 359 357 352 349 351 352 350 348 347 348 348 349 350 350 351 350 350 351 351 351 353 353 352 351 352 353 353 353 354 353 354 355 354 355 356 355 356 356 355 355 354 355 355 356 356 356 358 359 359 360 360 359 359 358 359 359
360 361 362 361 365 368 366 363 358 352 350 350 350 351 350 351 354 352 349 350 350 349 349 350 351 351 351 352 352 352 351 351 352 351 350 351 351 351 351 352 352 354 355 356 356 355 355 354 354 355 355 356 357 357 358 359 360 359 359 359 359 359 359
356 357 358 358 362 363 358 358 356 351 350 354 357 358 355 354 358 356 350 350 351 350 349 350 351 352 352 351 352 352 351 351 352 351 350 351 351 349 348 349 350 351 353 355 355 355 355 354 353 353 354 356 357 357 358 359 359 359 360 360 360 360 359
354 356 355 355 358 357 353 353 353 350 351 353 355 357 357 356 359 360 358 357 355 353 352 352 354 355 356 356 355 354 353 352 353 352 351 352 353 350 347 348 350 350 352 353 354 354 354 354 353 352 352 354 356 357 358 358 358 358 359 359 359 359 359
354 354 354 354 354 355 355 354 352 350 351 352 353 354 355 356 358 360 361 362 362 361 360 358 355 355 357 358 357 356 355 353 353 352 350 350 352 352 350 350 351 351 352 353 354 353 352 353 352 351 351 352 355 357 357 357 357 356 356 356 356 358 360
354 353 354 353 352 352 352 350 349 350 350 351 352 353 354 356 356 357 360 362 362 360 358 356 354 354 356 357 357 357 355 354 353 352 351 349 350 351 351 350 351 351 351 353 353 351 350 351 352 351 351 351 353 357 356 355 355 354 354 353 353 355 359
353 353 353 352 352 351 348 345 346 348 347 347 350 352 354 355 355 356 357 359 357 353 352 355 356 356 356 355 357 358 357 355 354 352 350 349 349 351 352 350 351 352 352 352 352 351 350 349 350 350 350 349 351 353 355 354 353 353 352 352 353 354 356
350 351 351 350 349 348 347 346 346 345 345 346 349 351 351 353 354 355 356 356 354 353 354 355 354 354 355 355 357 358 358 357 356 355 353 351 349 351 353 353 353 354 354 353 353 353 352 350 349 350 350 350 350 351 353 353 352 352 351 351 352 353 354
348 348 347 347 346 345 344 344 344 344 345 346 349 350 350 350 351 351 352 353 352 353 355 354 352 352 354 356 356 357 356 356 355 355 355 354 353 351 352 355 356 355 356 355 354 355 354 351 350 350 349 350 350 350 351 351 350 351 351 351 352 352 352
347 346 346 345 345 345 344 343 343 344 344 344 347 349 348 348 348 347 349 350 351 351 350 349 349 349 350 352 354 354 354 353 355 355 353 353 355 354 354 356 356 356 356 355 356 356 355 353 352 350 349 349 349 350 350 350 350 351 351 351 351 351 351
345 345 345 344 345 344 344 344 344 344 344 344 345 346 346 347 347 347 348 349 349 349 348 347 346 345 347 349 350 350 351 351 354 354 352 352 353 353 354 356 356 357 357 356 357 356 353 352 352 350 348 347 347 347 348 349 350 350 351 351 350 350 351
345 344 343 342 343 343 343 343 343 343 343 343 344 345 346 346 347 347 347 348 348 348 347 347 346 345 346 348 348 348 349 350 352 352 350 351 351 350 353 355 355 356 357 356 356 353 349 350 350 348 345 344 344 344 344 346 347 348 349 350 350 349 351
342 343 343 342 342 342 341 341 340 341 342 342 343 344 344 344 345 345 344 345 345 344 344 346 346 344 344 346 347 347 348 349 350 350 351 351 349 348 350 353 353 354 355 355 352 347 344 346 346 344 341 339 339 339 339 340 342 344 346 348 349 349 351
338 340 341 341 341 341 340 339 339 339 340 341 342 343 342 342 343 343 342 342 342 341 342 344 346 346 344 345 345 346 346 346 346 348 350 349 348 348 349 351 351 351 352 352 349 344 342 342 341 339 336 334 335 334 333 335 336 339 342 346 348 349 350
335 336 337 337 337 337 337 338 339 339 338 339 339 339 339 340 340 341 341 340 339 339 340 342 345 346 345 344 344 344 344 343 343 346 347 346 346 347 347 349 349 349 350 350 347 344 340 337 336 335 332 331 331 330 329 330 331 333 337 341 344 347 348
335 334 334 334 334 334 335 335 336 338 338 338 337 337 338 338 339 339 339 338 337 338 338 339 341 342 342 342 342 342 342 340 341 342 342 342 342 342 342 343 344 345 345 344 342 340 335 332 332 331 329 327 327 326 326 326 326 327 330 333 338 342 343
335 334 333 333 332 333 333 333 334 335 336 337 337 336 335 335 336 337 338 337 336 336 336 336 337 338 338 338 338 338 339 338 338 338 337 337 337 338 337 338 339 339 338 338 336 334 331 329 329 329 327 326 325 325 325 325 324 324 325 326 329 333 335
334 333 332 332 331 331 331 332 333 334 334 334 335 335 334 334 334 335 336 336 336 336 335 334 334 335 335 335 335 336 335 336 335 335 335 335 335 335 335 335 335 334 334 334 333 331 329 328 328 327 326 326 327 328 329 329 328 327 325 323 324 326 327
333 332 331 331 330 329 329 330 331 332 332 332 331 332 333 334 334 335 334 334 334 335 334 332 331 332 333 334 334 333 332 332 332 332 333 333 334 335 335 335 334 333 333 333 332 332 331 331 330 329 329 328 330 331 330 330 329 329 326 324 322 323 324
334 332 331 329 328 328 328 328 328 329 330 330 330 330 330 331 332 334 333 333 333 333 334 333 331 330 331 331 330 329 329 329 329 329 330 331 332 332 333 333 333 333 334 334 334 333 333 333 332 332 330 330 331 331 328 327 327 327 325 322 319 318 318
332 331 330 329 329 328 327 328 327 328 328 329 329 328 328 329 330 331 332 332 332 331 331 331 331 331 330 328 327 327 328 327 325 325 326 328 329 328 328 329 329 330 331 332 333 334 333 333 333 331 330 331 331 328 323 321 322 322 319 317 314 312 313
331 331 330 328 328 328 327 327 327 327 327 327 328 327 327 327 329 330 331 331 330 330 329 328 328 329 330 329 329 330 328 326 324 324 324 325 325 325 324 325 326 326 327 328 330 331 331 332 333 331 330 331 331 326 320 317 317 316 314 313 312 311 311
330 330 329 328 327 327 327 326 326 326 326 326 327 327 326 326 327 328 329 330 329 329 329 328 327 326 327 327 329 329 327 325 325 325 325 325 324 323 321 321 322 323 323 323 325 326 326 328 330 330 331 331 329 325 320 317 315 314 313 312 311 311 311
330 329 328 327 327 327 327 326 326 326 326 326 326 326 326 326 326 326 327 328 329 329 328 328 327 327 326 327 328 328 327 325 325 325 324 324 323 322 320 319 318 318 318 319 320 321 321 322 324 325 327 328 325 321 318 316 314 313 312 312 311 312 314
329 327 327 327 327 326 326 326 326 326 325 326 326 326 326 325 326 326 327 327 328 328 328 328 328 327 327 327 328 327 325 324 324 323 322 321 320 320 319 319 317 316 315 316 316 317 317 318 318 319 320 321 320 318 316 315 314 313 312 312 313 315 317

ECMWFFLT1_925_thetae_144.txt.gz
Theta_e
350 348 349 350 349 350 350 349 351 351 352 353 354 356 357 357 357 357 357 357 357 357 357 356 356 356 355 354 353 353 353 353 353 353 353 353 352 351 350 350 352 351 350 352 353 353 354 354 355 354 353 354 354 353 353 353 353 354 356 355 355 357 356
351 348 348 349 349 351 350 349 351 351 351 353 353 356 358 357 357 358 357 358 359 358 357 357 357 356 355 355 353 353 353 353 354 353 352 353 353 352 351 350 351 351 351 351 351 353 353 352 353 355 355 355 354 354 354 354 353 354 355 356 357 356 356
354 352 349 349 349 349 349 348 349 350 351 353 354 356 358 357 357 358 357 358 359 360 359 358 358 356 356 356 355 353 353 354 354 354 352 353 352 352 353 352 351 351 353 353 352 353 352 351 352 354 355 355 354 354 354 355 356 355 355 356 357 356 356
356 355 350 349 349 348 347 348 347 349 351 352 354 357 357 358 358 357 357 357 358 360 360 359 358 358 359 360 357 354 354 354 355 355 353 352 352 353 354 355 354 353 353 353 353 353 352 352 352 354 354 354 354 354 355 356 356 356 356 356 356 356 356
356 356 352 350 350 349 348 347 347 348 351 352 353 356 357 358 358 357 357 357 358 359 359 359 359 358 360 361 359 356 355 355 355 355 354 352 353 355 355 356 356 356 355 354 353 353 353 353 353 354 354 353 353 354 355 356 355 355 355 355 355 355 355
356 357 355 351 349 349 347 346 347 348 350 352 352 355 357 358 358 358 358 358 359 359 359 360 359 358 359 360 360 358 357 357 356 356 355 353 354 357 357 356 356 357 357 355 355 354 354 354 354 354 354 353 354 354 355 356 354 353 354 357 358 355 354
358 359 357 352 349 349 347 346 347 348 350 352 352 354 356 357 358 359 359 359 359 359 360 360 359 359 359 359 360 359 357 357 357 356 356 355 356 358 359 357 356 357 357 357 357 356 355 355 355 354 354 354 354 354 355 356 354 353 353 356 358 355 355
358 361 359 353 347 347 347 346 347 348 349 351 352 354 355 356 358 358 359 360 359 359 360 359 359 359 359 359 360 359 357 356 355 354 356 358 357 357 358 357 356 357 357 357 357 357 355 355 355 355 355 355 355 354 355 355 354 355 354 354 356 355 354
353 355 354 353 351 348 345 346 347 347 349 350 351 353 355 356 357 358 359 360 360 360 360 359 359 358 358 359 360 359 357 356 355 354 356 358 357 357 357 356 355 356 356 356 356 356 356 356 356 355 355 356 355 354 355 355 354 355 356 355 356 354 353
355 357 357 356 357 353 347 345 347 348 347 349 350 353 355 355 357 358 359 359 360 360 360 359 359 358 358 359 360 359 358 357 357 356 357 357 357 357 357 355 355 356 356 356 355 355 355 355 356 356 355 355 355 354 354 355 354 355 356 356 356 355 354
365 367 364 360 360 359 352 347 346 347 347 348 350 352 353 355 357 358 358 359 359 360 360 360 359 359 359 358 359 359 358 357 358 359 358 358 358 357 356 356 355 355 355 355 355 355 355 355 355 355 356 356 355 353 353 354 354 354 355 356 356 356 356
364 364 364 361 359 362 359 350 344 346 347 347 349 351 352 353 356 357 357 358 358 359 360 359 360 360 358 358 358 358 358 358 359 359 358 358 359 358 356 356 355 355 355 355 355 355 355 355 354 355 356 357 356 353 353 353 353 354 355 356 356 356 357
358 358 359 359 360 363 361 355 349 346 347 348 349 349 351 352 354 356 356 357 358 358 359 359 360 360 359 359 359 358 358 358 359 358 357 358 359 358 356 356 355 355 355 355 355 355 355 355 355 355 356 356 356 355 354 353 354 355 355 355 356 357 358
356 356 354 355 361 365 363 362 358 350 348 351 350 349 349 350 352 355 355 357 357 358 358 359 359 359 359 359 359 359 358 357 357 357 356 357 358 358 357 356 355 355 355 355 355 355 355 355 355 355 355 355 356 355 355 355 355 355 356 356 356 357 358
356 355 353 352 355 359 359 361 360 353 351 353 350 348 347 347 350 352 354 356 356 357 358 358 358 358 358 358 358 357 357 357 356 356 356 356 357 357 357 356 356 356 355 355 355 355 355 355 355 355 355 355 356 355 355 356 356 357 357 358 358 357 358
357 356 355 353 352 353 351 352 352 350 352 355 352 347 347 350 351 350 351 354 355 355 357 356 356 356 356 357 356 356 356 356 356 355 356 356 356 355 356 355 355 355 355 355 355 354 355 354 354 355 354 354 355 356 356 357 358 359 359 359 359 358 358
358 357 355 354 355 353 349 347 347 346 349 353 354 351 350 353 353 350 351 352 352 352 354 354 355 355 355 356 355 355 356 355 354 354 354 355 355 354 354 353 354 355 355 355 354 355 355 355 355 354 354 355 355 356 357 357 358 359 359 359 359 359 359
355 355 353 353 353 351 349 349 348 347 347 348 351 352 352 354 355 355 355 354 351 351 352 353 353 353 353 354 354 354 354 353 352 352 353 352 353 352 352 352 351 352 354 354 354 354 355 355 355 354 353 354 354 355 356 357 358 358 358 358 359 359 360
352 352 352 351 350 348 348 347 346 346 346 347 348 349 348 350 353 355 356 354 351 351 352 353 353 352 353 353 353 353 352 352 352 352 352 352 351 352 352 351 350 349 351 353 354 355 355 355 355 354 353 354 354 355 356 357 357 358 357 357 357 358 359
350 350 349 347 346 346 346 344 344 344 344 345 347 347 347 349 349 351 354 354 353 352 353 354 354 353 353 352 353 354 352 352 353 352 352 352 351 351 351 351 350 349 350 352 353 354 355 354 354 354 353 353 353 355 356 357 357 357 357 356 355 355 356
349 347 345 345 345 346 345 344 343 343 343 344 347 346 346 348 348 348 351 354 355 353 353 353 353 353 354 353 354 354 353 353 352 352 352 351 350 351 352 353 353 352 352 353 353 353 354 353 353 353 352 352 352 352 354 356 356 356 356 356 354 353 353
347 345 344 345 345 344 343 343 343 343 343 343 345 346 346 346 348 349 348 350 352 353 353 353 353 353 354 355 354 354 354 354 353 352 352 350 350 351 352 354 355 354 354 353 352 352 352 351 351 351 351 351 350 351 352 354 355 355 354 354 353 352 352
345 345 345 345 344 344 343 343 343 344 344 344 344 346 346 346 347 348 347 347 348 347 349 352 354 354 353 354 354 354 354 355 354 354 353 352 352 351 351 352 354 355 355 354 352 351 350 349 350 350 350 350 349 350 351 351 353 353 353 353 352 351 352
342 343 344 343 343 344 344 343 344 344 344 344 345 345 346 346 346 346 345 346 346 345 345 347 350 350 350 352 352 352 353 354 354 354 352 351 351 352 352 351 352 354 355 354 353 352 351 350 350 349 349 349 349 349 350 350 351 351 351 351 350 350 351
342 342 343 343 342 343 343 343 343 343 343 344 344 344 345 345 345 345 344 344 345 345 345 346 347 346 346 347 349 349 350 352 352 351 350 347 348 351 353 353 352 352 354 354 354 353 353 351 349 348 348 348 348 348 348 349 349 349 349 350 350 351 352
340 341 342 341 340 341 341 342 342 342 343 342 342 343 343 343 344 343 343 344 345 344 345 346 346 345 345 346 347 347 347 348 348 349 349 347 347 348 351 352 353 352 352 353 353 352 351 350 349 348 346 345 345 346 346 347 348 349 349 350 349 351 354
338 341 341 340 339 339 340 340 341 341 341 341 341 341 341 341 341 341 341 343 343 343 345 345 345 344 343 344 345 345 345 345 345 346 347 348 349 349 348 349 351 352 351 351 350 349 348 347 346 345 342 340 341 342 341 343 344 345 347 349 348 350 354
334 336 338 338 338 338 339 339 339 339 340 340 340 340 340 339 339 339 340 340 340 341 344 345 344 342 342 342 344 344 344 343 343 345 346 348 349 349 348 347 349 351 349 346 346 346 344 343 342 340 337 336 337 337 337 338 339 341 344 347 348 350 353
332 332 334 335 336 337 338 338 338 338 338 339 339 339 338 338 338 338 338 338 339 341 343 343 342 341 341 342 342 343 342 340 341 342 344 345 345 345 345 345 346 347 346 343 342 342 340 339 338 336 333 333 332 332 333 334 335 338 341 343 345 348 348
332 331 332 333 334 336 336 336 336 336 336 336 337 338 337 336 337 336 336 337 339 340 341 340 340 339 339 339 338 338 338 337 337 339 340 341 341 342 341 341 341 341 341 340 339 337 334 334 333 331 329 328 327 327 328 330 332 334 334 335 338 340 339
331 331 331 331 333 334 335 334 334 334 334 334 335 337 336 336 336 336 336 336 337 338 338 338 339 338 337 337 336 335 335 335 335 335 336 337 339 339 338 337 335 334 333 333 332 330 329 329 328 327 326 326 326 327 326 327 328 329 328 328 330 332 331
331 329 329 330 331 333 333 332 331 332 332 332 333 335 336 336 336 336 335 335 335 336 336 336 336 336 335 335 335 334 334 334 334 334 334 335 335 335 335 334 333 332 331 329 328 327 327 328 328 328 327 328 329 329 328 326 326 326 325 324 326 328 329
331 329 328 328 329 330 331 330 330 329 329 329 331 333 334 335 335 335 335 333 332 333 335 335 334 334 334 334 334 334 334 334 333 334 334 333 333 333 333 333 332 332 332 331 330 330 330 329 329 330 331 330 328 327 328 326 325 323 322 321 321 323 323
330 329 328 328 327 328 328 329 329 328 327 327 329 331 332 333 332 332 332 333 332 332 332 334 334 332 332 332 332 332 333 333 333 333 332 332 332 332 332 333 333 333 332 333 333 332 330 330 329 330 330 328 325 325 325 323 321 319 317 315 314 315 316
329 329 328 328 327 327 327 327 328 327 327 327 327 329 330 330 330 330 330 331 332 331 330 331 331 330 330 330 331 330 330 330 330 330 330 329 329 328 328 329 331 331 332 332 332 331 329 327 327 328 329 329 327 326 324 321 317 315 313 312 312 313 316
328 328 327 327 327 326 326 326 327 326 327 326 326 327 327 328 329 329 328 328 330 331 330 330 329 328 328 329 328 327 326 326 326 326 326 326 326 325 324 325 326 327 328 329 330 330 330 328 327 328 330 329 326 323 321 318 315 313 312 312 313 316 319
328 327 327 327 327 326 326 326 326 326 326 326 326 326 326 327 327 328 328 328 328 328 329 329 329 329 329 327 325 324 324 323 323 323 323 323 323 322 322 321 321 322 322 323 324 326 328 329 329 329 330 330 327 321 317 315 313 312 312 313 316 319 321
328 327 327 326 326 326 326 325 325 326 326 325 325 325 325 326 326 327 327 328 327 327 327 328 328 329 329 328 325 324 324 324 323 323 323 322 321 321 321 320 319 317 317 318 318 319 321 324 326 328 328 327 325 321 318 315 313 312 313 315 317 320 321